{"data":{"norad_id":65219,"intl_designator":"2025-176X","name":"STARLINK-34960","alt_names":[],"object_type":"PAYLOAD","status":"ACTIVE","operator":null,"country":"US","launch_date":"2025-08-14","launch_site_code":"AFETR","launch_vehicle":null,"mission":null,"orbit_class":"UNKNOWN","rcs_meters":null,"size_class":null,"mass_kg":null,"dimensions":null,"purposes":["comms"],"wikipedia_slug":null,"has_3d_model":false,"image_url":null,"decayed_at":null,"tle_current":{"epoch":"2026-09-20T10:57:27.876960Z","epoch_age_seconds":124167,"freshness":"FRESH","line1":"1 65219U 25176X   26263.45657265  .00000055  00000+0  12756-4 0  9997","line2":"2 65219  53.1579 324.2569 0000975  87.7560 272.3554 15.34368546 62999","mean_motion":15.34368546,"eccentricity":9.75e-5,"inclination_deg":53.1579,"raan_deg":324.2569,"arg_perigee_deg":87.756,"mean_anomaly_deg":272.3554,"bstar":1.2756e-5,"rev_number":6299,"period_min":93.849681926418,"perigee_km":462.12973868214,"apogee_km":463.46372075944,"semimajor_km":6840.9337297208,"source":"CELESTRAK","updated_at":"2026-09-21T09:00:35.537704Z"}}}